Location: Unspecified
(0.0000°N, 0.0000°E)
Time: 08:53:03
(UTC+00:00)

Envisat - Pass Details

Date: 30 January 2021
Orbit: 764 x 766 km, 98.1° (Epoch: 27 February)

Event Time Altitude Azimuth Distance (km) Brightness Sun altitude
Rises 05:00:41 0° 21° (NNE) 3,213 6.3 -17.3°
Reaches altitude 10° 05:03:02 10° 26° (NNE) 2,290 5.6 -16.7°
Maximum altitude 05:07:56 52° 102° (ESE) 946 3.9 -15.6°
Drops below altitude 10° 05:12:50 10° 178° (S) 2,299 5.7 -14.4°
Sets 05:15:12 0° 182° (S) 3,227 6.4 -13.8°
